Location: Newark
(49.1000°N, 0.4667°W)
Time: 13:57:17
(UTC+00:00)

BEESAT 2 - Visible Passes

Search period start: 10 July 2020 00:00
Search period end: 20 July 2020 00:00
Orbit: 491 x 535 km, 64.9° (Epoch: 09 July)

Date Brightness Start Highest point End Pass type
(mag) Time Alt. Az. Time Alt. Az. Time Alt. Az.
10 Jul ? 00:53:13 10° NW 00:55:00 13° NNW 00:56:48 10° N visible
10 Jul ? 21:18:54 10° S 21:22:17 28° ESE 21:25:45 10° ENE visible
10 Jul ? 22:55:59 10° WSW 22:59:46 40° NW 23:03:35 10° NNE visible
11 Jul ? 00:36:37 10° NW 00:38:24 12° NNW 00:40:11 10° N visible
11 Jul ? 21:02:18 10° S 21:05:42 28° ESE 21:09:08 10° ENE visible
11 Jul ? 22:39:23 10° WSW 22:43:09 40° NW 22:46:59 10° NNE visible
12 Jul ? 00:20:01 10° NW 00:21:48 12° NNW 00:23:35 10° N visible
12 Jul ? 20:45:40 10° S 20:49:04 28° ESE 20:52:32 10° ENE visible
12 Jul ? 22:22:46 10° WSW 22:26:33 40° NW 22:30:22 10° NNE visible
13 Jul ? 00:03:24 10° NW 00:05:11 12° NNW 00:06:58 10° N visible
13 Jul ? 03:21:17 10° NNW 03:23:51 16° NNE 03:26:24 10° ENE visible
13 Jul ? 22:06:09 10° WSW 22:09:56 40° NW 22:13:46 10° NNE visible
13 Jul ? 23:46:47 10° NW 23:48:34 12° NNW 23:50:21 10° N visible
14 Jul ? 03:04:40 10° NNW 03:07:14 16° NNE 03:09:47 10° ENE visible
14 Jul ? 21:49:32 10° WSW 21:53:19 40° NW 21:57:09 10° NNE visible
14 Jul ? 23:30:11 10° NW 23:31:58 12° NNW 23:33:45 10° N visible
15 Jul ? 02:48:04 10° NNW 02:50:37 16° NNE 02:53:10 10° ENE visible
15 Jul ? 21:32:56 10° WSW 21:36:43 40° NW 21:40:32 10° NNE visible
15 Jul ? 23:13:34 10° NW 23:15:21 12° NNW 23:17:08 10° N visible
16 Jul ? 02:31:27 10° NNW 02:34:00 16° NNE 02:36:34 10° ENE visible
16 Jul ? 21:16:19 10° WSW 21:20:06 40° NW 21:23:56 10° NNE visible
16 Jul ? 22:56:58 10° NW 22:58:44 12° NNW 23:00:31 10° N visible
17 Jul ? 02:14:50 10° NNW 02:17:24 16° NNE 02:19:57 10° ENE visible
17 Jul ? 20:59:42 10° WSW 21:03:29 40° NW 21:07:19 10° NNE visible
17 Jul ? 22:40:20 10° NW 22:42:08 12° NNW 22:43:54 10° N visible
18 Jul ? 01:58:13 10° NNW 02:00:47 16° NNE 02:03:20 10° ENE visible
18 Jul ? 03:35:06 10° NW 03:39:07 66° NE 03:43:06 10° SE visible
18 Jul ? 20:43:05 10° WSW 20:46:52 40° NW 20:50:42 10° NNE visible
18 Jul ? 22:23:43 10° NW 22:25:30 12° NNW 22:27:17 10° N visible
19 Jul ? 01:41:37 10° NNW 01:44:10 16° NNE 01:46:43 10° ENE visible
19 Jul ? 03:18:29 10° NW 03:22:30 66° NE 03:26:29 10° SE visible
19 Jul ? 22:07:07 10° NW 22:08:53 12° NNW 22:10:40 10° N visible
